www.pogodaiklimat.ru

Погода и климат >> Архив погоды >> Австралия >> Западная Австралия >> Онслоу


ПОГОДА в Онслоу

  • Прогноз погоды в Онслоу
  • Монитор погоды в Онслоу

АРХИВ ПОГОДЫ в Онслоу

Время (UTC), дата Ветер
(напр.,м/с)
 
Видим.   Явления Облачность Т
(С)
Тd
(С)
f
(%)
Тe
(С)
Тes
(С)
Комфортность P
(гПа)
Po
(гПа)
Тmin
(С)
Tmax
(С)
R
(мм)
R24
(мм)
S
(см)
07 14.07 С 6 н/о н/о +26.2 +5.2 26 +25 +25 комфорт 1020.5 1019.2
09 14.07 С 5 н/о н/о +23.7 +11.4 46 +25 +25 комфорт 1020.6 1019.3
10 14.07 З 3 н/о н/о +20.2 +13.6 66 +23 +23 комфорт 1021.0 1019.7
12 14.07 ЮЗ 4 н/о н/о +18.5 +11.1 62 +19 +19 1022.5 1021.2
13 14.07 ЮЗ 4 н/о н/о +17.8 +12.0 69 +18 +18 1022.7 1021.4 +28.2
15 14.07 Ю 5 н/о н/о +16.7 +11.0 69 +16 +16 1022.8 1021.5
16 14.07 ЮЗ 4 н/о н/о +16.3 +10.4 68 +16 +16 1022.5 1021.2
18 14.07 Ю 3 н/о н/о +14.8 +10.0 73 +14 +14 1022.2 1020.9
19 14.07 В 3 н/о н/о +13.8 +9.3 74 +13 +13 1022.4 1021.1
21 14.07 СВ 7 н/о н/о +17.6 +2.8 37 +17 +17 1022.5 1021.2
22 14.07 В 7 н/о н/о +16.6 +3.3 41 +15 +15 1022.5 1021.2
00 15.07 В 6 н/о н/о +17.7 +2.5 36 +17 +17 1023.7 1022.4
01 15.07 В 7 н/о н/о +20.2 +2.5 31 +20 +20 1023.7 1022.4 +13.6
03 15.07 СВ 8 н/о н/о +24.7 -0.4 19 +23 +23 комфорт 1023.3 1022.0
04 15.07 СВ 7 н/о н/о +25.5 +5.1 27 +25 +25 комфорт 1022.6 1021.3
06 15.07 С 6 н/о н/о +25.0 +3.0 24 +24 +24 комфорт 1020.8 1019.5
07 15.07 С 6 н/о н/о +24.9 +6.6 31 +25 +25 комфорт 1020.4 1019.1
09 15.07 С 4 н/о н/о +22.7 +10.2 45 +25 +25 комфорт 1020.3 1019.0
10 15.07 С 3 н/о н/о +19.7 +12.0 61 +22 +22 комфорт 1020.7 1019.4
12 15.07 З 3 н/о н/о +17.0 +10.6 66 +17 +17 1021.7 1020.4
13 15.07 ЮЗ 4 н/о н/о +16.8 +11.5 71 +16 +16 1022.0 1020.7 +26.1
15 15.07 ЮЗ 3 н/о н/о +15.7 +9.8 68 +15 +15 1022.4 1021.1
16 15.07 ЮЗ 4 н/о н/о +16.1 +10.2 68 +15 +15 1022.2 1020.9
18 15.07 Ю 5 н/о н/о +15.0 +9.6 70 +14 +14 1021.6 1020.3
19 15.07 ЮВ 5 н/о н/о +13.9 +7.7 66 +12 +12 1021.6 1020.3
21 15.07 В 5 н/о н/о +13.8 +9.0 73 +12 +12 1021.8 1020.5
22 15.07 В 7 н/о н/о +15.6 +4.9 49 +14 +14 1022.1 1020.8
00 16.07 В 5 н/о н/о +15.8 +5.4 50 +15 +15 1023.6 1022.3
01 16.07 В 5 н/о н/о +18.7 +3.7 37 +19 +19 1023.9 1022.6 +11.9
03 16.07 СВ 9 н/о н/о +24.3 -0.8 19 +23 +23 комфорт 1023.1 1021.8
04 16.07 СВ 7 н/о н/о +25.4 -0.6 18 +24 +24 комфорт 1022.3 1021.0
06 16.07 С 5 н/о н/о +25.6 +1.0 20 +24 +24 комфорт 1020.6 1019.3
07 16.07 С 5 н/о н/о +24.2 +3.5 26 +24 +24 комфорт 1020.2 1018.9
09 16.07 СЗ 4 н/о н/о +22.5 +7.9 39 +24 +24 комфорт 1020.0 1018.7
10 16.07 С 3 н/о н/о +19.4 +11.2 59 +21 +21 комфорт 1020.3 1019.0
12 16.07 ЮЗ 4 н/о н/о +16.9 +10.5 66 +17 +17 1021.3 1020.0
13 16.07 ЮЗ 4 н/о н/о +16.8 +10.0 64 +16 +16 1021.5 1020.2 +26.1
15 16.07 Ю 3 н/о н/о +15.6 +9.9 69 +15 +15 1021.3 1020.0
16 16.07 ЮЗ 4 н/о н/о +15.1 +10.1 72 +14 +14 1020.5 1019.2
18 16.07 Ю 4 н/о н/о +13.1 +7.8 70 +11 +11 1019.4 1018.1
19 16.07 ЮВ 3 н/о н/о +12.3 +7.6 73 +11 +11 1019.0 1017.7
21 16.07 В 5 н/о н/о +12.8 +9.6 81 +11 +11 1019.3 1018.0
22 16.07 В 4 н/о н/о +12.4 +8.9 79 +11 +11 1019.8 1018.5
00 17.07 В 6 н/о н/о +16.9 +3.2 40 +16 +16 1021.1 1019.8
01 17.07 В 6 н/о н/о +20.2 +2.1 30 +20 +20 1021.6 1020.3 +11.5
03 17.07 СВ 10 н/о н/о +25.2 0.0 19 +24 +24 комфорт 1020.7 1019.4
04 17.07 СВ 8 н/о н/о +25.7 +3.0 23 +25 +25 комфорт 1020.1 1018.8
06 17.07 С 8 н/о н/о +25.5 +5.1 27 +25 +25 комфорт 1018.4 1017.1
07 17.07 С 6 н/о н/о +24.8 +8.3 35 +25 +25 комфорт 1018.0 1016.7
09 17.07 С 4 н/о н/о +22.8 +8.9 41 +24 +24 комфорт 1017.8 1016.5
10 17.07 СЗ 2 н/о н/о +19.9 +11.9 60 +22 +22 комфорт 1017.9 1016.6
12 17.07 СЗ 3 н/о н/о +17.0 +13.7 81 +17 +17 1018.5 1017.2
13 17.07 Ю 4 н/о н/о +15.7 +12.8 83 +15 +15 1019.2 1017.9 +26.6
15 17.07 Ю 3 н/о н/о +14.2 +10.0 76 +13 +13 1019.0 1017.7
16 17.07 ЮЗ 3 н/о н/о +14.4 +9.4 72 +14 +14 1018.7 1017.4
18 17.07 ЮЗ 4 н/о н/о +14.4 +9.4 72 +13 +13 1018.9 1017.6
19 17.07 З 5 н/о н/о +13.5 +7.7 68 +12 +12 1018.3 1017.0
21 17.07 Ю 4 н/о н/о +12.4 +7.5 72 +11 +11 1018.0 1016.7
22 17.07 Ю 4 н/о н/о +11.0 +6.6 74 +9 +9 1018.2 1016.9
00 18.07 В 4 н/о н/о +13.4 +6.7 64 +12 +12 1018.9 1017.6
01 18.07 В 4 н/о н/о +17.8 +9.4 58 +18 +18 1019.3 1018.0 +10.1
03 18.07 СВ 7 н/о н/о +25.4 +1.5 21 +24 +24 комфорт 1018.6 1017.3
04 18.07 СВ 5 н/о н/о +26.8 +1.3 19 +25 +25 комфорт 1018.0 1016.7
06 18.07 С 6 н/о н/о +27.5 -2.3 14 +25 +25 комфорт 1016.0 1014.7
07 18.07 С 7 н/о н/о +26.4 -1.4 16 +24 +24 комфорт 1015.5 1014.2
09 18.07 С 5 н/о н/о +23.6 +8.1 37 +24 +24 комфорт 1015.4 1014.1
10 18.07 С 4 н/о н/о +20.2 +12.7 62 +22 +22 комфорт 1015.5 1014.2
12 18.07 С 2 н/о н/о +18.7 +13.6 72 +20 +20 1016.3 1015.0
13 18.07 штиль 0 н/о н/о +16.5 +12.3 76 +16 +16 1016.8 1015.5 +28.0
15 18.07 Ю 3 н/о н/о +15.0 +11.4 79 +14 +14 1017.3 1016.0
16 18.07 ЮВ 3 н/о н/о +14.7 +9.5 71 +14 +14 1017.1 1015.8
18 18.07 Ю 3 н/о н/о +13.8 +8.2 69 +13 +13 1016.5 1015.2
19 18.07 Ю 4 н/о н/о +13.9 +8.1 68 +12 +12 1016.2 1014.9
21 18.07 ЮВ 3 н/о н/о +12.4 +7.1 70 +11 +11 1016.1 1014.8
22 18.07 ЮВ 4 н/о н/о +12.1 +6.8 70 +10 +10 1016.4 1015.1
00 19.07 В 3 н/о н/о +15.8 +8.5 62 +15 +15 1016.7 1015.4
01 19.07 ЮВ 3 н/о н/о +20.4 +7.4 43 +22 +22 комфорт 1017.2 1015.9 +11.7
03 19.07 Ю 2 н/о н/о +26.0 +0.6 19 +24 +24 комфорт 1016.9 1015.6
04 19.07 СЗ 4 н/о н/о +26.8 +6.2 27 +26 +26 жарко 1016.2 1014.9
06 19.07 З 6 н/о н/о +26.1 +10.3 37 +27 +27 жарко 1015.3 1014.0
07 19.07 З 6 н/о 3/0
[]
+26.1 +8.6 33 +26 +29 жарко 1015.0 1013.7
09 19.07 З 6 н/о н/о +25.2 +5.4 28 +25 +25 комфорт 1015.4 1014.1
10 19.07 З 5 н/о н/о +21.5 +10.9 51 +23 +23 комфорт 1015.5 1014.2
12 19.07 З 4 н/о н/о +18.9 +12.6 67 +20 +20 1016.5 1015.2
13 19.07 ЮЗ 6 н/о н/о +20.0 +14.1 69 +22 +22 комфорт 1017.1 1015.8 +28.0
15 19.07 ЮЗ 6 н/о н/о +19.3 +13.3 68 +20 +20 1017.3 1016.0
16 19.07 ЮЗ 7 н/о н/о +18.8 +13.0 69 +19 +19 1017.3 1016.0
18 19.07 Ю 5 н/о н/о +17.6 +12.5 72 +17 +17 1017.5 1016.2
19 19.07 Ю 4 н/о н/о +16.8 +11.9 73 +16 +16 1017.4 1016.1
21 19.07 Ю 4 н/о н/о +16.2 +12.0 76 +15 +15 1017.6 1016.3
22 19.07 Ю 4 н/о н/о +15.3 +11.7 79 +14 +14 1018.2 1016.9
00 20.07 Ю 5 н/о н/о +17.1 +12.4 74 +16 +16 1018.9 1017.6
01 20.07 Ю 7 н/о н/о +19.9 +12.2 61 +21 +21 комфорт 1019.5 1018.2 +15.2
03 20.07 Ю 9 н/о н/о +22.7 +12.0 51 +25 +25 комфорт 1019.1 1017.8
04 20.07 Ю 9 н/о н/о +24.1 +11.4 45 +26 +26 жарко 1018.2 1016.9
06 20.07 Ю 9 н/о н/о +25.4 +9.3 36 +26 +26 жарко 1016.6 1015.3
07 20.07 Ю 9 н/о н/о +25.7 +9.1 35 +26 +26 жарко 1016.2 1014.9
09 20.07 Ю 9 н/о н/о +23.9 +7.1 34 +24 +24 комфорт 1016.5 1015.2
10 20.07 Ю 7 н/о н/о +21.9 +8.4 42 +23 +23 комфорт 1016.7 1015.4
12 20.07 Ю 5 н/о н/о +19.0 +7.4 47 +19 +19 1017.9 1016.6
13 20.07 Ю 5 н/о н/о +18.2 +7.0 48 +18 +18 1018.4 1017.1 +26.1
15 20.07 Ю 6 н/о н/о +16.7 +5.9 49 +16 +16 1018.4 1017.1
16 20.07 Ю 6 н/о н/о +15.9 +5.2 49 +15 +15 1017.9 1016.6
18 20.07 Ю 6 н/о н/о +14.6 +4.6 51 +13 +13 1017.1 1015.8
19 20.07 Ю 7 н/о н/о +14.3 +4.0 50 +12 +12 1016.6 1015.3
21 20.07 Ю 6 н/о н/о +14.4 +4.4 51 +13 +13 1016.5 1015.2
22 20.07 Ю 6 н/о н/о +13.6 +4.2 53 +12 +12 1016.8 1015.5
00 21.07 Ю 5 н/о н/о +15.1 +3.9 47 +14 +14 1017.6 1016.3
01 21.07 ЮВ 7 н/о н/о +18.9 +2.7 34 +19 +19 1018.0 1016.7 +13.2
03 21.07 ЮВ 5 н/о н/о +24.3 +3.0 25 +24 +24 комфорт 1017.9 1016.6
04 21.07 ЮВ 3 н/о н/о +25.3 +3.3 24 +24 +24 комфорт 1017.3 1016.0

 

Местоположение метеостанции Онслоу (Западная Австралия, Австралия): широта -21.67 долгота 115.12 высота над уровнем моря 4 м.

В архиве по умолчанию представлена погода в Онслоу за последнюю неделю. Архивные данные за месяц целиком и за предыдущие месяцы, начиная с января 2011 года, Вы можете получить, выбрав интересующий диапазон дат из раскрывающегося списка и нажав кнопку "Ввод!".


*Определитесь, кто Вы:
робот инопланетянин человек

Внимание! Время в таблицах - всемирное. Для получения местного времени необходимо прибавить поправку, которая равна 8 ч.

Смотрите также архив погоды в соседних городах и на ближайших метеорологических станциях:

Погода на Острове Тевенард (Западная Австралия, Австралия) (27 км)
Погода в Барроу-Айленд (Западная Австралия, Австралия) (93 км)
Погода в Марди (Западная Австралия, Австралия) (104 км)
Погода на Острове Варанас (Западная Австралия, Австралия) (123 км)
Погода в Лермонте (Западная Австралия, Австралия) (124 км)
Погода в Каррате (Западная Австралия, Австралия) (201 км)
Погода в Роборн аэропорту (Западная Австралия, Австралия) (234 км)
Погода в Параберду (Западная Австралия, Австралия) (318 км)
Погода в Карнарвоне (Западная Австралия, Австралия) (387 км)
Погода в Порт-Хедленде Apardoo (Западная Австралия, Австралия) (392 км)

Пояснения к столбцам:

Ветер - указаны скорость ветра в м/с - средняя за 10 мин, порывы в срок и между сроками (в фигурных скобках) и направление, откуда дует ветер: С - северный, СВ - северо-восточный, В - восточный, ЮВ - юго-восточный, Ю - южный, ЮЗ - юго-западный, З - западный, СЗ - северо-западный.
Видимость - горизонтальная дальность видимости в метрах или километрах. При видимости от 1 до 10 км при отсутствии осадков обычно наблюдается дымка, при ухудшении видимости до 1 км и менее - туман. В сухую погоду видимость может ухудшаться дымом, пылью или мглою.
Явления - указаны атмосферные явления, наблюдавшиеся в срок или в последний час перед сроком; фигурными скобками обозначены явления, наблюдавшиеся между сроками (за 1-3 часа до срока); квадратными скобками обозначены град или гололедные отложения с указанием их диаметра в мм.
Облачность - указаны через наклонную черту общая и нижняя облачность в баллах и высота нижней границы облаков в метрах; квадратными скобками обозначены формы облаков: Ci - перистые, Cs - перисто-слоистые, Cc - перисто-кучевые, Ac - высококучевые, As - высокослоистые, Sc - слоисто-кучевые, Ns - слоисто-дождевые, Cu - кучевые, Cb - кучево-дождевые. Подробнее классификацию облаков см. в Атласе облаков (PDF).
T - Температура воздуха - температура, измеренная на высоте 2 м над землей.
Td - Температура точки росы - температура, при понижении до которой содержащийся в воздухе водяной пар достигнет насыщения.
f - Относительная влажность воздуха - влажноcть воздуха, измеренная на высоте 2 м над землей.
Te - Эффективная температура - температура, которую ощущает одетый по сезону человек в тени. Характеристика душности погоды. При расчете учитывается влияние влажности воздуха и скорости ветра на теплоощущения человека.
Tes - Эффективная температура на солнце - температура, которую ощущает человек, с поправкой на солнечный нагрев. Характеристика знойности погоды. Зависит от высоты солнца над горизонтом, облачности и скорости ветра. Ночью, в пасмурную погоду, а также при ветре 12 м/с и более поправка равна нулю.
P - Атмосферное давление - приведенное к уровню моря атмосферное давление.
Po - Атмосферное давление - измеренное на уровне метеостанции атмосферное давление.
Tmin - Минимальная температура - минимум температуры воздуха на высоте 2 м над землей.
Tmax - Максимальная температура - максимум температуры воздуха на высоте 2 м над землей.
R - Количество осадков - Количество выпавших осадков за период времени, мм. При наведении курсора мыши на число - период времени, за который выпало указанное количество осадков.
R24 - Количество осадков - Количество выпавших осадков за 24 часа, мм.
S - Снежный покров - Высота снежного покрова, см. При наведении курсора мыши на число - состояние снежного покрова и степень покрытия местности в баллах.